Location: Hains Lake
(37.8540°N, 99.8578°W)
Time: 12:23:34
(UTC+00:00)

Vanguard 3 - All Passes

Search period start: 18 April 2021 00:00
Search period end: 28 April 2021 00:00
Orbit: 508 x 3262 km, 33.3° (Epoch: 18 April)

Date Brightness Start Highest point End Pass type
(mag) Time Alt. Az. Time Alt. Az. Time Alt. Az.
18 Apr - 08:10:20 10° SW 08:14:12 24° SSE 08:17:22 10° ESE night (unlit)
18 Apr - 10:21:37 10° WSW 10:25:11 43° S 10:28:55 10° ESE visible
18 Apr - 12:32:44 10° WSW 12:36:14 30° SSW 12:40:56 10° SE daylight
18 Apr - 14:45:16 10° SW 14:47:58 13° SSW 14:51:15 10° S daylight
19 Apr - 06:56:27 10° SSW 07:00:26 18° SSE 07:03:31 10° ESE night (unlit)
19 Apr - 09:07:41 10° WSW 09:11:40 38° S 09:15:07 10° ESE visible
19 Apr - 11:19:12 10° WSW 11:22:38 38° S 11:26:37 10° ESE visible
19 Apr - 13:30:48 10° WSW 13:33:52 18° SSW 13:37:50 10° SSE daylight
20 Apr - 05:43:00 10° S 05:46:21 14° SSE 05:49:06 10° SE night (unlit)
20 Apr - 07:53:23 10° SW 07:58:04 31° SSE 08:01:34 10° ESE night (unlit)
20 Apr - 10:05:23 10° WSW 10:09:06 43° S 10:12:41 10° ESE visible
20 Apr - 12:16:57 10° WSW 12:20:05 24° SSW 12:23:57 10° SE daylight
21 Apr - 06:38:51 10° SW 06:44:14 25° SSE 06:48:02 10° ESE night (unlit)
21 Apr - 08:51:07 10° WSW 08:55:34 43° S 08:59:06 10° ESE visible
21 Apr - 11:03:09 10° WSW 11:06:30 33° SSW 11:10:07 10° SE visible
21 Apr - 13:15:44 10° SW 13:17:40 13° SSW 13:19:53 10° S daylight
22 Apr - 05:24:24 10° SSW 05:30:05 19° SSE 05:34:11 10° ESE night (unlit)
22 Apr - 07:36:23 10° WSW 07:41:55 38° S 07:45:45 10° ESE night (unlit)
22 Apr - 09:49:04 10° WSW 09:53:00 42° S 09:56:30 10° ESE visible
22 Apr - 12:01:13 10° WSW 12:03:55 19° SSW 12:06:58 10° SSE daylight
23 Apr - 04:10:38 10° S 04:15:35 15° SSE 04:19:28 10° SE visible
23 Apr - 06:21:17 10° SW 06:28:00 32° SSE 06:32:24 10° ESE night (unlit)
23 Apr - 08:34:28 10° WSW 08:39:27 47° S 08:43:07 10° ESE visible
23 Apr - 10:47:03 10° WSW 10:50:23 28° SSW 10:53:41 10° SE visible
24 Apr - 05:06:09 10° SSW 05:13:46 26° SSE 05:18:48 10° ESE visible
24 Apr - 07:19:18 10° WSW 07:25:45 45° S 07:29:54 10° E night (unlit)
24 Apr - 09:32:39 10° W 09:36:54 41° S 09:40:23 10° ESE visible
24 Apr - 11:45:38 10° WSW 11:47:42 14° SSW 11:49:54 10° SSE daylight
25 Apr - 03:51:25 10° SSW 03:59:09 20° SSE 04:04:37 10° ESE visible
25 Apr - 06:03:44 10° SW 06:11:45 39° SSE 06:16:39 10° E night (unlit)
25 Apr - 08:17:43 10° WSW 08:23:19 50° S 08:27:11 10° ESE visible
25 Apr - 10:30:54 10° WSW 10:34:12 25° SSW 10:37:16 10° SE visible
26 Apr - 02:37:52 10° S 02:44:07 15° SSE 02:49:07 10° ESE visible
26 Apr - 04:48:01 10° SW 04:57:23 33° SSE 05:03:12 10° E visible
26 Apr - 07:02:09 10° WSW 07:09:31 51° S 07:14:02 10° E night (unlit)
26 Apr - 09:16:08 10° W 09:20:45 39° SSW 09:24:18 10° ESE visible
26 Apr - 11:30:26 10° SW 11:31:26 11° SSW 11:32:26 10° S daylight
27 Apr - 03:32:35 10° SSW 03:42:37 26° SSE 03:49:15 10° ESE visible
27 Apr - 05:46:07 10° WSW 05:55:25 47° S 06:00:50 10° E visible
27 Apr - 08:00:51 10° W 08:07:09 53° S 08:11:14 10° ESE night (unlit)
27 Apr - 10:14:41 10° WSW 10:17:59 22° SSW 10:20:53 10° SSE visible
